Simultaneous Nadir Overpasses (SNOs) Predictions

Prediction of SNOs over PacNW region [( 10.00, 139.50) to ( 22.70, 165.60)] between AQUA and NPP Satellites:

Table of predicted SNOs over PacNW region for the next 30.0 days since TLE Epoch: 9/18/2021
Index Date (AQUA) Time (AQUA) AQUA Lat,Lon Date (NPP) Time (NPP) NPP Lat,Lon Distance(km) Time Diff (sec)
1 09/24/2021 15:09:53 22.62, 159.84 09/24/2021 15:11:51 23.23, 157.12 286.33 118
2 09/27/2021 03:31:44 22.65, 147.51 09/27/2021 03:28:15 23.07, 145.53 208.71 209
3 10/02/2021 15:59:22 22.63, 147.48 10/02/2021 16:02:38 23.30, 144.45 318.37 196
4 10/10/2021 15:09:56 22.61, 159.83 10/10/2021 15:11:56 23.24, 157.13 286.00 120
5 10/13/2021 03:31:46 22.69, 147.51 10/13/2021 03:28:16 22.86, 145.58 198.19 210
